TimePDT,TemperatureF,Dew PointF,Humidity,Sea Level PressureIn,VisibilityMPH,Wind Direction,Wind SpeedMPH,Gust SpeedMPH,PrecipitationIn,Events,Conditions,WindDirDegrees,DateUTC
12:58 AM,93.9,56.8,29,29.85,10.0,Calm,Calm,-,N/A,,Clear,0,2013-07-26 07:58:00
1:58 AM,91.8,58.6,33,29.85,10.0,NE,11.5,-,N/A,,Clear,40,2013-07-26 08:58:00
2:58 AM,89.6,59.7,36,29.86,10.0,ENE,10.4,-,N/A,,Clear,70,2013-07-26 09:58:00
3:58 AM,89.6,59.5,36,29.87,10.0,NNE,5.8,-,N/A,,Clear,30,2013-07-26 10:58:00
4:58 AM,89.6,59.9,37,29.87,10.0,Calm,Calm,-,N/A,,Clear,0,2013-07-26 11:58:00
5:58 AM,87.3,62.1,43,29.89,10.0,ENE,8.1,-,N/A,,Partly Cloudy,70,2013-07-26 12:58:00
6:58 AM,89.6,60.1,37,29.90,10.0,ENE,3.5,-,N/A,,Clear,70,2013-07-26 13:58:00
7:58 AM,91.6,59.5,34,29.93,10.0,SE,5.8,-,N/A,,Clear,140,2013-07-26 14:58:00
8:58 AM,92.7,59.5,33,29.94,10.0,Calm,Calm,-,N/A,,Clear,0,2013-07-26 15:58:00
9:58 AM,94.8,59.5,31,29.94,10.0,ESE,5.8,-,N/A,,Clear,110,2013-07-26 16:58:00
10:58 AM,96.6,60.3,30,29.93,10.0,East,6.9,-,N/A,,Clear,100,2013-07-26 17:58:00
11:58 AM,98.8,57.0,25,29.91,10.0,ESE,4.6,-,N/A,,Scattered Clouds,110,2013-07-26 18:58:00
12:58 PM,101.1,59.7,25,29.87,10.0,ESE,10.4,-,N/A,,Clear,120,2013-07-26 19:58:00
1:53 PM,104.0,59.0,23,29.94,10.0,SSE,15.0,23.0,N/A,,Clear,160,2013-07-26 20:53:00
1:58 PM,104.0,59.0,23,29.85,10.0,South,11.5,23.0,N/A,,Clear,180,2013-07-26 20:58:00
2:58 PM,103.5,59.9,24,29.84,10.0,South,25.3,31.1,N/A,,Partly Cloudy,180,2013-07-26 21:58:00
3:15 PM,102.2,59.0,24,29.93,10.0,SSW,28.8,36.8,N/A,,Partly Cloudy,200,2013-07-26 22:15:00
3:58 PM,96.3,60.3,30,29.86,10.0,SSW,18.4,-,N/A,,Clear,210,2013-07-26 22:58:00
4:38 PM,96.8,60.8,30,29.94,10.0,WSW,17.3,-,N/A,,Clear,240,2013-07-26 23:38:00
4:58 PM,96.4,57.9,28,29.85,10.0,SW,21.9,24.2,N/A,,Clear,230,2013-07-26 23:58:00
5:58 PM,96.8,58.3,28,29.83,10.0,SSW,10.4,-,N/A,,Clear,210,2013-07-27 00:58:00
6:58 PM,97.0,57.4,27,29.83,10.0,South,8.1,-,N/A,,Clear,190,2013-07-27 01:58:00
7:58 PM,95.7,57.9,28,29.84,10.0,South,11.5,-,N/A,,Scattered Clouds,180,2013-07-27 02:58:00
8:58 PM,95.0,57.7,29,29.86,10.0,South,11.5,-,N/A,,Mostly Cloudy,180,2013-07-27 03:58:00
9:58 PM,94.5,58.3,30,29.88,10.0,SSE,11.5,-,N/A,,Mostly Cloudy,150,2013-07-27 04:58:00
10:58 PM,91.8,62.8,38,29.90,10.0,NE,9.2,-,N/A,,Mostly Cloudy,40,2013-07-27 05:58:00
11:58 PM,83.5,64.0,52,29.95,8.0,NE,29.9,41.4,N/A,,Scattered Clouds,50,2013-07-27 06:58:00